Simultaneous Nadir Overpasses (SNOs) Predictions

Prediction of SNOs between AQUA and METOP-A Satellite Orbit:

Table of predicted SNOs for the next 14.0 days since TLE Epoch: 2/27/2021
Index Date (AQUA) Time (AQUA) Lat,Lon (AQUA) SZA (AQUA ) Date (METOP-A) Time (METOP-A) Lat,Lon (METOP-A) SZA (METOP-A ) Distance(km) Time Diff (sec)
1 03/01/2021 18:49:42 77.09,-117.33 84.92 03/01/2021 18:48:36 77.08,-117.33 84.94 0.70 66
2 03/01/2021 19:39:09 -77.14, 50.14 95.04 03/01/2021 19:39:16 -77.15, 50.25 95.04 2.96 7
3 03/01/2021 20:28:41 77.36,-143.12 85.23 03/01/2021 20:29:50 77.42,-141.30 85.14 44.58 69
4 03/04/2021 14:23:56 77.09, -50.90 83.84 03/04/2021 14:22:57 77.08, -51.00 83.85 2.93 59
5 03/04/2021 15:13:23 -77.14, 116.56 96.12 03/04/2021 15:13:37 -77.14, 116.58 96.12 0.77 14
6 03/04/2021 16:03:02 77.69, -78.01 84.54 03/04/2021 16:04:05 77.67, -73.83 84.24 99.27 63
7 03/07/2021 09:58:11 77.10, 15.51 82.75 03/07/2021 09:57:18 77.12, 15.49 82.79 2.06 53
8 03/07/2021 10:47:38 -77.15,-177.03 97.21 03/07/2021 10:47:59 -77.14,-177.09 97.22 1.74 21
9 03/10/2021 05:32:26 77.11, 81.90 81.66 03/10/2021 05:31:40 77.11, 81.81 81.67 2.44 46
10 03/10/2021 06:21:53 -77.16,-110.63 98.31 03/10/2021 06:22:20 -77.18,-110.59 98.30 2.28 27
11 03/13/2021 01:06:40 77.13, 148.28 80.56 03/13/2021 01:06:00 77.15, 148.29 80.59 1.56 40



Historial Predications of SNOs between AQUA and METOP-A
